Location: Passau
(48.5830°N, 13.4830°E)
Time: 04:08:38
(UTC+01:00)

HuskySat-1 - Visible Passes

Search period start: 06 December 2021 00:00
Search period end: 16 December 2021 00:00
Orbit: 443 x 456 km, 51.6° (Epoch: 05 December)

Date Brightness Start Highest point End Pass type
(mag) Time Alt. Az. Time Alt. Az. Time Alt. Az.
06 Dec ? 16:48:44 10° SW 16:52:06 40° SSE 16:55:29 10° ENE visible
06 Dec ? 18:25:58 10° W 18:29:16 61° NW 18:29:16 61° NW visible
07 Dec ? 17:48:02 10° WSW 17:51:37 71° NNW 17:52:55 36° ENE visible
07 Dec ? 19:25:53 10° WNW 19:26:30 14° WNW 19:26:30 14° WNW visible
08 Dec ? 17:10:08 10° WSW 17:13:43 82° NNW 17:16:33 15° ENE visible
08 Dec ? 18:47:56 10° WNW 18:50:07 31° WNW 18:50:07 31° WNW visible
09 Dec ? 18:09:59 10° W 18:13:29 50° N 18:13:44 49° NNE visible
10 Dec ? 17:32:00 10° W 17:35:31 52° N 17:37:21 25° ENE visible
10 Dec ? 19:09:43 10° WNW 19:10:55 19° WNW 19:10:55 19° WNW visible
11 Dec ? 16:54:00 10° W 16:57:32 55° N 17:00:58 11° ENE visible
11 Dec ? 18:31:47 10° WNW 18:34:32 45° NW 18:34:32 45° NW visible
12 Dec ? 17:53:48 10° WNW 17:57:21 54° N 17:58:11 41° ENE visible
12 Dec ? 19:31:21 10° WNW 19:31:46 13° WNW 19:31:46 13° WNW visible
13 Dec ? 17:15:49 10° WNW 17:19:20 51° N 17:21:53 17° ENE visible
13 Dec ? 18:53:22 10° WNW 18:55:28 32° WNW 18:55:28 32° WNW visible
14 Dec ? 18:15:23 10° WNW 18:18:59 88° SSW 18:19:13 77° ESE visible
15 Dec ? 17:37:23 10° WNW 17:40:59 79° NNE 17:43:05 23° ESE visible
15 Dec ? 19:15:08 10° W 19:16:41 20° WSW 19:16:41 20° WSW visible
